Location: Newark
(34.1333°N, 7.9667°W)
Time: 08:34:30
(UTC+00:00)

First-Move - Visible Passes

Search period start: 09 June 2023 00:00
Search period end: 19 June 2023 00:00
Orbit: 561 x 637 km, 97.7° (Epoch: 08 June)

Date Brightness Start Highest point End Pass type
(mag) Time Alt. Az. Time Alt. Az. Time Alt. Az.
09 Jun ? 02:54:04 10° ENE 02:56:05 13° E 02:58:06 10° ESE visible
09 Jun ? 04:27:44 10° N 04:31:58 45° WNW 04:36:09 10° SSW visible
10 Jun ? 03:04:04 10° NE 03:07:00 17° E 03:09:55 10° SE visible
10 Jun ? 04:38:45 10° N 04:42:44 34° WNW 04:46:41 10° SW visible
11 Jun ? 03:14:21 10° NE 03:17:53 23° E 03:21:21 10° SSE visible
11 Jun ? 04:49:49 10° NNW 04:53:28 26° WNW 04:57:05 10° SW visible
12 Jun ? 03:24:49 10° NE 03:28:44 30° E 03:32:26 11° SSE visible
13 Jun ? 03:35:22 10° NNE 03:39:33 41° E 03:43:19 12° SSE visible
14 Jun ? 03:46:00 10° NNE 03:50:20 56° E 03:54:11 12° S visible
15 Jun ? 03:56:40 10° NNE 04:01:06 77° ESE 04:05:02 12° S visible
16 Jun ? 04:07:24 10° N 04:11:49 79° WNW 04:15:51 12° SSW visible
17 Jun ? 04:18:11 10° N 04:22:31 58° WNW 04:26:40 10° SSW visible
18 Jun ? 02:55:13 10° ENE 02:57:18 13° E 02:59:21 10° ESE visible
18 Jun ? 04:29:01 10° N 04:33:10 43° WNW 04:37:14 10° SW visible
